User: anonymous   Login
Location: Unspecified
(0.0000°N, 0.0000°E)
Time: 10:13:56
(UTC+00:00)
Language:

PSAT 2 - Orbit

View from above orbital plane
View from above orbital plane
View from above satellite
View from above satellite

Ground track
Ground track

The orbit data is extracted from the following two-line orbital elements,

1 44354U 19036R   20188.50710707  .00009134  00000-0  13144-3 0  9998
2 44354  28.5288 255.4549 0363543 154.4789 207.4235 15.03690913 56686
Epoch (UTC): 06 July 2020 12:10:14
Eccentricity: 0.0363543
inclination: 28.5288°
perigee height: 303 km
apogee height: 807 km
right ascension of ascending node: 255.4549°
argument of perigee: 154.4789°
revolutions per day: 15.03690913
mean anomaly at epoch: 207.4235°
orbit number at epoch: 5668

The dashed part of the orbit path shows where the satellite is in the earth's shadow,  

DLR